• In Hungary
  • List of Countries
  • For 7 days
  • Water Temperature
  • Satellite Maps
  • Weather Map
  • News
  • Weather Widgets
  • user-avatar
    Login

    Hourly Weather Sozopol

    Today, 11 December, Monday

    Time Temperature Precipitation Wind Pressure Humidity
    00:00 +2°C° 0 mm 3 mps 761 mmHg 59%
    01:00 +2°C° 0 mm 3 mps 761 mmHg 58%
    02:00 +2°C° 0 mm 3 mps 761 mmHg 55%
    03:00 +1°C° 0 mm 4 mps 761 mmHg 55%
    04:00 +1°C° 0 mm 4 mps 761 mmHg 56%
    05:00 +2°C° 0 mm 5 mps 761 mmHg 56%
    06:00 +2°C° 0 mm 5 mps 761 mmHg 59%
    07:00 +2°C° 0 mm 6 mps 761 mmHg 63%
    08:00 +2°C° 0 mm 6 mps 760 mmHg 66%
    09:00 +4°C° 0 mm 6 mps 760 mmHg 64%
    10:00 +5°C° 0 mm 7 mps 760 mmHg 61%
    11:00 +8°C° 0 mm 7 mps 761 mmHg 59%
    12:00 +9°C° 0 mm 7 mps 761 mmHg 60%
    13:00 +10°C° 0 mm 7 mps 760 mmHg 60%
    14:00 +12°C° 0 mm 7 mps 760 mmHg 61%
    15:00 +11°C° 0 mm 7 mps 760 mmHg 65%
    16:00 +10°C° 0 mm 6 mps 760 mmHg 70%
    17:00 +10°C° 0 mm 6 mps 760 mmHg 75%
    18:00 +9°C° 0 mm 6 mps 761 mmHg 78%
    19:00 +9°C° 0 mm 5 mps 761 mmHg 81%
    20:00 +9°C° 0 mm 5 mps 761 mmHg 85%
    21:00 +9°C° 0 mm 5 mps 761 mmHg 85%
    22:00 +9°C° 0 mm 5 mps 761 mmHg 86%
    23:00 +8°C° 0 mm 5 mps 761 mmHg 87%

    Tomorrow, 12 December, Tuesday

    Time Temperature Precipitation Wind Pressure Humidity
    00:00 +8°C° 0 mm 5 mps 761 mmHg 87%
    01:00 +8°C° 0 mm 5 mps 761 mmHg 88%
    02:00 +8°C° 0 mm 5 mps 761 mmHg 89%
    03:00 +8°C° 0 mm 5 mps 761 mmHg 89%
    04:00 +8°C° 0 mm 5 mps 761 mmHg 90%
    05:00 +8°C° 0 mm 5 mps 761 mmHg 90%
    06:00 +8°C° 0 mm 5 mps 761 mmHg 90%
    07:00 +8°C° 0 mm 5 mps 762 mmHg 89%
    08:00 +7°C° 0 mm 5 mps 762 mmHg 89%
    09:00 +9°C° 0 mm 5 mps 762 mmHg 80%
    10:00 +10°C° 0 mm 5 mps 762 mmHg 72%
    11:00 +13°C° 0 mm 5 mps 762 mmHg 63%
    12:00 +13°C° 0 mm 5 mps 762 mmHg 60%
    13:00 +14°C° 0 mm 4 mps 762 mmHg 56%
    14:00 +15°C° 0 mm 4 mps 762 mmHg 53%
    15:00 +13°C° 0 mm 4 mps 762 mmHg 57%
    16:00 +12°C° 0 mm 3 mps 762 mmHg 61%
    17:00 +11°C° 0 mm 3 mps 762 mmHg 65%
    18:00 +11°C° 0 mm 3 mps 762 mmHg 67%
    19:00 +10°C° 0 mm 3 mps 762 mmHg 69%
    20:00 +10°C° 0 mm 3 mps 762 mmHg 71%
    21:00 +9°C° 0 mm 2 mps 762 mmHg 72%
    22:00 +9°C° 0 mm 2 mps 762 mmHg 73%
    23:00 +9°C° 0 mm 2 mps 762 mmHg 74%

    Day after tomorrow, 13 December, Wednesday

    Time Temperature Precipitation Wind Pressure Humidity
    00:00 +8°C° 0 mm 2 mps 762 mmHg 75%
    01:00 +8°C° 0 mm 2 mps 762 mmHg 76%
    02:00 +8°C° 0 mm 2 mps 762 mmHg 77%
    03:00 +8°C° 0 mm 3 mps 762 mmHg 78%
    04:00 +7°C° 0 mm 3 mps 761 mmHg 79%
    05:00 +7°C° 0 mm 3 mps 761 mmHg 80%
    06:00 +7°C° 0 mm 3 mps 761 mmHg 81%
    07:00 +7°C° 0 mm 3 mps 762 mmHg 82%
    08:00 +7°C° 0 mm 3 mps 762 mmHg 82%
    09:00 +9°C° 0 mm 3 mps 762 mmHg 77%
    10:00 +11°C° 0 mm 3 mps 762 mmHg 71%
    11:00 +12°C° 0 mm 3 mps 762 mmHg 65%
    12:00 +13°C° 0 mm 3 mps 761 mmHg 63%
    13:00 +15°C° 0 mm 2 mps 761 mmHg 60%
    14:00 +16°C° 0 mm 2 mps 760 mmHg 57%
    15:00 +14°C° 0 mm 2 mps 760 mmHg 63%
    16:00 +13°C° 0 mm 2 mps 760 mmHg 68%
    17:00 +12°C° 0 mm 2 mps 760 mmHg 74%
    18:00 +12°C° 0 mm 2 mps 760 mmHg 76%
    19:00 +10°C° 0 mm 2 mps 760 mmHg 78%
    20:00 +10°C° 0 mm 2 mps 760 mmHg 79%
    21:00 +10°C° 0 mm 2 mps 760 mmHg 81%
    22:00 +10°C° 0 mm 2 mps 759 mmHg 82%
    23:00 +10°C° 0 mm 2 mps 759 mmHg 83%

    14 December, Thursday

    Time Temperature Precipitation Wind Pressure Humidity
    00:00 +10°C° 0 mm 2 mps 759 mmHg 84%
    01:00 +10°C° 0 mm 2 mps 759 mmHg 85%
    02:00 +10°C° 0 mm 2 mps 758 mmHg 86%
    03:00 +10°C° 0 mm 2 mps 758 mmHg 86%
    04:00 +9°C° 0 mm 2 mps 758 mmHg 86%
    05:00 +9°C° 0 mm 2 mps 758 mmHg 86%
    06:00 +9°C° 0 mm 2 mps 758 mmHg 87%
    07:00 +9°C° 0 mm 2 mps 758 mmHg 87%
    08:00 +9°C° 0 mm 2 mps 758 mmHg 88%
    09:00 +10°C° 0 mm 2 mps 758 mmHg 84%
    10:00 +10°C° 0 mm 2 mps 758 mmHg 81%
    11:00 +12°C° 0 mm 2 mps 759 mmHg 78%
    12:00 +13°C° 0 mm 2 mps 758 mmHg 73%
    13:00 +14°C° 0 mm 2 mps 758 mmHg 69%
    14:00 +15°C° 0 mm 1 mps 758 mmHg 64%
    15:00 +14°C° 0 mm 1 mps 758 mmHg 68%
    16:00 +13°C° 0 mm 1 mps 758 mmHg 72%
    17:00 +12°C° 0 mm 1 mps 758 mmHg 76%
    18:00 +11°C° 0 mm 1 mps 758 mmHg 78%
    19:00 +11°C° 0 mm 1 mps 758 mmHg 81%
    20:00 +9°C° 0 mm 2 mps 758 mmHg 83%
    21:00 +9°C° 0 mm 2 mps 758 mmHg 86%
    22:00 +9°C° 0 mm 2 mps 758 mmHg 88%
    23:00 +9°C° 0 mm 2 mps 758 mmHg 90%

    15 December, Friday

    Time Temperature Precipitation Wind Pressure Humidity
    00:00 +9°C° 0 mm 2 mps 757 mmHg 91%
    01:00 +9°C° 0 mm 2 mps 757 mmHg 92%
    02:00 +9°C° 0 mm 2 mps 757 mmHg 93%
    03:00 +9°C° 0 mm 3 mps 757 mmHg 93%
    04:00 +9°C° 0 mm 3 mps 757 mmHg 93%
    05:00 +8°C° 0 mm 3 mps 757 mmHg 94%
    06:00 +8°C° 0 mm 3 mps 757 mmHg 94%
    07:00 +8°C° 0 mm 3 mps 757 mmHg 95%
    08:00 +8°C° 0 mm 3 mps 757 mmHg 95%
    09:00 +9°C° 0 mm 3 mps 758 mmHg 89%
    10:00 +11°C° 0 mm 3 mps 758 mmHg 83%
    11:00 +12°C° 0 mm 3 mps 758 mmHg 77%
    12:00 +13°C° 0 mm 3 mps 757 mmHg 73%
    13:00 +14°C° 0 mm 4 mps 757 mmHg 70%
    14:00 +15°C° 0 mm 4 mps 756 mmHg 66%
    15:00 +14°C° 0 mm 4 mps 756 mmHg 70%
    16:00 +13°C° 0 mm 5 mps 756 mmHg 74%
    17:00 +13°C° 0 mm 5 mps 755 mmHg 79%
    18:00 +13°C° 0 mm 6 mps 755 mmHg 80%
    19:00 +11°C° 0 mm 6 mps 755 mmHg 82%
    20:00 +11°C° 0 mm 7 mps 755 mmHg 83%
    21:00 +11°C° 0 mm 7 mps 755 mmHg 83%
    22:00 +11°C° 0 mm 7 mps 754 mmHg 83%
    23:00 +11°C° 0 mm 7 mps 754 mmHg 83%

    16 December, Saturday

    Time Temperature Precipitation Wind Pressure Humidity
    00:00 +11°C° 0 mm 8 mps 754 mmHg 84%
    01:00 +11°C° 0 mm 8 mps 754 mmHg 85%
    02:00 +11°C° 0 mm 8 mps 754 mmHg 85%
    03:00 +11°C° 0 mm 8 mps 754 mmHg 86%
    04:00 +12°C° 0 mm 8 mps 754 mmHg 86%
    05:00 +12°C° 0 mm 9 mps 753 mmHg 86%
    06:00 +12°C° 0 mm 9 mps 754 mmHg 86%
    07:00 +12°C° 0 mm 9 mps 754 mmHg 86%
    08:00 +12°C° 0 mm 9 mps 754 mmHg 87%
    09:00 +12°C° 0 mm 8 mps 754 mmHg 83%
    10:00 +13°C° 0 mm 8 mps 754 mmHg 79%
    11:00 +15°C° 0 mm 8 mps 754 mmHg 75%
    12:00 +16°C° 0 mm 8 mps 754 mmHg 70%
    13:00 +16°C° 0 mm 7 mps 754 mmHg 66%
    14:00 +17°C° 0 mm 7 mps 754 mmHg 62%
    15:00 +16°C° 0 mm 6 mps 754 mmHg 65%
    16:00 +15°C° 0 mm 6 mps 754 mmHg 69%
    17:00 +14°C° 0 mm 5 mps 755 mmHg 73%
    18:00 +14°C° 0 mm 5 mps 755 mmHg 76%
    19:00 +13°C° 0 mm 4 mps 756 mmHg 78%
    20:00 +12°C° 0 mm 4 mps 756 mmHg 81%
    21:00 +12°C° 0 mm 4 mps 756 mmHg 82%
    22:00 +12°C° 0 mm 4 mps 756 mmHg 83%
    23:00 +12°C° 0 mm 4 mps 756 mmHg 84%
    Show more